Location: Newark
(44.4156°N, 12.1972°E)
Time: 20:58:06
(UTC+00:00)

STARLINK-1098 - Pass Details

Date: 30 January 2020
Orbit: 531 x 533 km, 53.0° (Epoch: 18 February)

Event Time Altitude Azimuth Distance (km) Brightness Sun altitude
Rises 17:28:12 0° 304° (NW) 2,649 7.8 -12.9°
Reaches altitude 10° 17:30:27 10° 308° (NW) 1,754 6.8 -13.3°
Maximum altitude 17:34:23 63° 30° (NNE) 579 3.5 -14.0°
Enters shadow 17:36:43 23° 106° (ESE) 1,137 4.7 -14.4°
